Location: *
(51.8167°N, 12.5000°E)
Time: 06:41:22
(UTC+00:00)

USA 186 - Pass Details

Date: 16 September 2019
Orbit: 261 x 450 km, 96.9° (Epoch: 07 October)

Event Time Altitude Azimuth Distance (km) Brightness Sun altitude
Exits shadow 18:19:53 - 157° (SSE) 2,131 4.9 -9.4°
Reaches altitude 10° 18:21:14 10° 155° (SSE) 1,562 4.2 -9.6°
Maximum altitude 18:24:33 62° 74° (ENE) 514 1.9 -10.1°
Drops below altitude 10° 18:27:59 10° 353° (N) 1,604 5.0 -10.6°
Sets 18:30:03 0° 350° (N) 2,481 6.1 -10.9°
